NSS-6

Last updated on Tue Aug 29 2023 00:02:36 GMT+0000 (Coordinated Universal Time)

1 27603U 02057A 23239.72202289 -.00000298 00000+0 00000+0 0 9991 2 27603 2.7134 86.8343 0001563 143.7275 144.6334 0.99127134 75769
UTC large
Height (km)
Speed (km/s)
/
Latitude / Longitude
Inclination (degrees)
Orbital Period (minutes)
Azimuth
Elevation
Range (km)
Doppler Factor

Next 0 passes for location: London (51.5072 / 0.1276)

Sorry there are no passes over London.